Location: Arbon
(43.0005°N, 0.7472°E)
Time: 09:30:04
(UTC+00:00)

SR - Pass Details

Date: 03 December 2020
Orbit: 575 x 880 km, 66.7° (Epoch: 21 January)

Event Time Altitude Azimuth Distance (km) Brightness Sun altitude
Rises 03:22:54 0° 316° (NW) 3,258 - -40.9°
Reaches altitude 10° 03:25:39 10° 303° (WNW) 2,376 - -40.4°
Maximum altitude 03:29:58 24° 251° (WSW) 1,660 - -39.7°
Drops below altitude 10° 03:34:27 10° 200° (SSW) 2,485 - -38.8°
Sets 03:37:25 0° 187° (S) 3,442 - -38.3°
